Weather History for KIJX - October, 2012

Change the Weather History Date:

Monday, October 29, 2012

  Actual Average (KSPI) Record (KSPI)
Temperature  
Mean Temperature 42 °F 51 °F  
Max Temperature 54 °F 61 °F 83 °F (1937)
Min Temperature 30 °F 41 °F 17 °F (1952)
Degree Days  
Heating Degree Days 23 14  
Month to date heating degree days 298  
Since 1 July heating degree days 379  
Cooling Degree Days 0 0  
Month to date cooling degree days 19  
Year to date cooling degree days 1118  
Moisture  
Dew Point 30 °F    
Average Humidity 68    
Maximum Humidity 91    
Minimum Humidity 35    
Precipitation  
Precipitation 0.00 in 0.11 in 1.89 in (2009)
Month to date precipitation 2.95  
Year to date precipitation 31.50  
Snow  
Snow 0.00 in 0.00 in 1.80 in (1925)
Month to date snowfall 0.0  
Since 1 July snowfall 0.0  
Since 1 September snowfall 0.0  
Snow Depth -    
Sea Level Pressure  
Sea Level Pressure 30.27 in    
Wind  
Wind Speed 6 mph (NNW)    
Max Wind Speed 12 mph    
Max Gust Speed 16 mph    
Visibility 10 miles    
Events      
T = Trace of Precipitation, MM = Missing Value Source: NWS Daily Summary

Daily Weather History Graph

Daily Weather History Graph

Search for Another Location

Airport or City:

Trip Planner

Search our weather history database for the weather conditions in past years. The results will help you decide how hot, cold, wet, or windy it might be!

Date:

Astronomy

Oct. 29, 2012 Rise Set
Actual Time 7:26 AM CDT 6:01 PM CDT
Civil Twilight 6:58 AM CDT 6:29 PM CDT
Nautical Twilight 6:27 AM CDT 7:01 PM CDT
Astronomical Twilight 5:55 AM CDT 7:32 PM CDT
Moon 5:54 PM CDT (10/29) 7:17 AM CDT (10/29)
Length of Visible Light 11h 30m
Length of Day
10h 35m
Full, 100% of the Moon is Illuminated
Oct 29
Full
Oct 29
Full
Nov 6
Last Quarter
Nov 13
New
Nov 20
First Quarter

Hourly Weather History & Observations

Time (CDT) Temp. Windchill Dew Point Humidity Pressure Visibility Wind Dir Wind Speed Gust Speed Precip Events Conditions
12:15 AM 34.7 °F 30.6 °F 29.8 °F 82% 30.30 in 10.0 mi NNE 4.6 mph - N/A   Clear
12:35 AM 34.3 °F 28.4 °F 29.7 °F 83% 30.30 in 10.0 mi North 6.9 mph - N/A   Clear
12:55 AM 32.9 °F 27.5 °F 29.3 °F 87% 30.30 in 10.0 mi North 5.8 mph - N/A   Clear
1:15 AM 34.5 °F 29.4 °F 29.8 °F 83% 30.30 in 10.0 mi North 5.8 mph - N/A   Clear
1:35 AM 33.8 °F 28.6 °F 29.5 °F 84% 30.29 in 10.0 mi North 5.8 mph - N/A   Clear
1:55 AM 34.3 °F 29.2 °F 29.3 °F 82% 30.29 in 10.0 mi North 5.8 mph - N/A   Clear
2:15 AM 35.1 °F 30.1 °F 30.0 °F 82% 30.30 in 10.0 mi North 5.8 mph - N/A   Clear
2:35 AM 34.7 °F 28.8 °F 29.3 °F 81% 30.30 in 10.0 mi North 6.9 mph - N/A   Clear
2:55 AM 34.7 °F 29.6 °F 29.7 °F 82% 30.29 in 10.0 mi North 5.8 mph - N/A   Clear
3:15 AM 33.1 °F 26.9 °F 28.8 °F 84% 30.29 in 10.0 mi North 6.9 mph - N/A   Clear
3:35 AM 32.2 °F 25.8 °F 28.8 °F 87% 30.29 in 10.0 mi NNW 6.9 mph - N/A   Clear
3:55 AM 32.4 °F 26.0 °F 29.1 °F 88% 30.30 in 10.0 mi NW 6.9 mph - N/A   Clear
4:15 AM 32.5 °F 27.1 °F 28.9 °F 87% 30.30 in 10.0 mi NNW 5.8 mph - N/A   Clear
4:35 AM 32.9 °F 27.5 °F 29.1 °F 86% 30.30 in 10.0 mi NNW 5.8 mph - N/A   Clear
4:55 AM 33.4 °F 29.1 °F 29.3 °F 85% 30.30 in 10.0 mi NNW 4.6 mph - N/A   Clear
5:15 AM 32.0 °F 27.5 °F 28.4 °F 87% 30.30 in 10.0 mi NW 4.6 mph - N/A   Clear
5:35 AM 30.2 °F 25.4 °F 26.6 °F 86% 30.30 in 10.0 mi NNW 4.6 mph - N/A   Clear
5:55 AM 30.2 °F 26.7 °F 27.0 °F 88% 30.30 in 10.0 mi NNW 3.5 mph - N/A   Clear
6:15 AM 30.6 °F 25.8 °F 27.7 °F 89% 30.31 in 10.0 mi NW 4.6 mph - N/A   Clear
6:35 AM 30.2 °F 25.4 °F 27.5 °F 90% 30.31 in 10.0 mi NW 4.6 mph - N/A   Clear
6:55 AM 30.0 °F 25.2 °F 27.5 °F 90% 30.31 in 10.0 mi NW 4.6 mph - N/A   Clear
7:15 AM 32.0 °F 26.4 °F 29.1 °F 89% 30.31 in 10.0 mi NNW 5.8 mph - N/A   Clear
7:35 AM 31.5 °F 26.8 °F 28.4 °F 88% 30.32 in 10.0 mi NNW 4.6 mph - N/A   Clear
7:55 AM 32.0 °F 26.4 °F 28.6 °F 87% 30.32 in 10.0 mi NNW 5.8 mph - N/A   Clear
8:15 AM 32.2 °F 27.7 °F 29.8 °F 91% 30.33 in 10.0 mi NW 4.6 mph - N/A   Clear
8:35 AM 34.9 °F 30.8 °F 32.0 °F 89% 30.33 in 10.0 mi NW 4.6 mph - N/A   Clear
8:55 AM 36.7 °F 30.5 °F 32.2 °F 84% 30.34 in 10.0 mi North 8.1 mph - N/A   Clear
9:15 AM 38.7 °F 33.6 °F 33.4 °F 81% 30.34 in 10.0 mi NNW 6.9 mph - N/A   Clear
9:35 AM 40.3 °F 35.5 °F 34.2 °F 79% 30.34 in 10.0 mi North 6.9 mph - N/A   Clear
9:55 AM 41.7 °F 36.7 °F 34.9 °F 77% 30.34 in 10.0 mi North 8.1 mph - N/A   Clear
10:15 AM 43.7 °F 39.7 °F 35.8 °F 74% 30.33 in 10.0 mi North 6.9 mph - N/A   Clear
10:35 AM 45.5 °F 43.2 °F 36.0 °F 69% 30.33 in 10.0 mi North 4.6 mph - N/A   Clear
10:55 AM 46.6 °F - 36.3 °F 67% 30.33 in 10.0 mi North 6.9 mph - N/A   Clear
11:15 AM 48.2 °F - 36.5 °F 64% 30.33 in 10.0 mi North 6.9 mph - N/A   Clear
11:35 AM 49.3 °F - 36.9 °F 62% 30.33 in 10.0 mi NNW 5.8 mph - N/A   Clear
11:55 AM 49.8 °F - 36.3 °F 60% 30.32 in 10.0 mi NNW 8.1 mph - N/A   Clear
12:15 PM 50.4 °F - 34.9 °F 55% 30.31 in 10.0 mi North 5.8 mph - N/A   Clear
12:35 PM 50.9 °F - 34.3 °F 53% 30.30 in 10.0 mi NNW 8.1 mph - N/A   Clear
12:55 PM 51.6 °F - 32.4 °F 48% 30.29 in 10.0 mi NNW 8.1 mph - N/A   Clear
1:15 PM 52.0 °F - 32.4 °F 47% 30.28 in 10.0 mi NW 5.8 mph - N/A   Clear
1:35 PM 52.7 °F - 32.9 °F 47% 30.26 in 7.0 mi NNW 8.1 mph - N/A   Clear
1:55 PM 53.1 °F - 29.3 °F 40% 30.26 in 10.0 mi North 8.1 mph - N/A   Clear
2:15 PM 53.4 °F - 30.0 °F 41% 30.25 in 10.0 mi North 10.4 mph 16.1 mph N/A   Clear
2:35 PM 53.6 °F - 28.2 °F 38% 30.24 in 10.0 mi North 4.6 mph 10.4 mph N/A   Clear
2:55 PM 54.3 °F - 26.8 °F 35% 30.23 in 10.0 mi NW 5.8 mph - N/A   Clear
3:15 PM 54.1 °F - 27.3 °F 36% 30.23 in 10.0 mi North 6.9 mph - N/A   Clear
3:35 PM 54.3 °F - 27.5 °F 36% 30.23 in 10.0 mi North 11.5 mph - N/A   Clear
3:55 PM 54.3 °F - 28.0 °F 36% 30.21 in 10.0 mi North 11.5 mph - N/A   Clear
4:15 PM 54.5 °F - 29.3 °F 38% 30.21 in 10.0 mi NW 11.5 mph - N/A   Clear
4:35 PM 54.0 °F - 29.1 °F 39% 30.21 in 10.0 mi North 10.4 mph - N/A   Clear
4:55 PM 53.6 °F - 29.8 °F 40% 30.20 in 10.0 mi North 8.1 mph - N/A   Clear
5:15 PM 52.3 °F - 28.0 °F 39% 30.20 in 10.0 mi North 8.1 mph - N/A   Clear
5:35 PM 50.7 °F - 28.9 °F 43% 30.20 in 10.0 mi North 8.1 mph - N/A   Clear
5:55 PM 48.0 °F - 30.0 °F 50% 30.20 in 10.0 mi NNW 5.8 mph - N/A   Clear
6:15 PM 45.7 °F 42.0 °F 29.3 °F 53% 30.19 in 10.0 mi NW 6.9 mph - N/A   Clear
6:35 PM 45.5 °F 42.5 °F 28.6 °F 52% 30.19 in 10.0 mi NW 5.8 mph - N/A   Clear
6:55 PM 43.0 °F 38.2 °F 29.3 °F 59% 30.19 in 10.0 mi NNW 8.1 mph - N/A   Clear
7:15 PM 42.4 °F 38.8 °F 29.1 °F 59% 30.18 in 10.0 mi NNW 5.8 mph - N/A   Clear
7:35 PM 40.6 °F 36.0 °F 28.9 °F 63% 30.17 in 10.0 mi NNW 6.9 mph - N/A   Clear
10:35 PM 38.3 °F 32.5 °F 28.0 °F 67% 30.15 in 10.0 mi NNW 8.1 mph - N/A   Clear
10:55 PM 38.1 °F 32.9 °F 28.2 °F 68% 30.15 in 10.0 mi NW 6.9 mph - N/A   Clear
11:15 PM 38.1 °F 33.7 °F 28.0 °F 67% 30.15 in 10.0 mi NNW 5.8 mph - N/A   Clear
11:35 PM 37.8 °F 32.5 °F 27.9 °F 67% 30.15 in 10.0 mi NNW 6.9 mph - N/A   Clear
11:55 PM 38.3 °F 33.2 °F 28.2 °F 67% 30.14 in 10.0 mi NW 6.9 mph - N/A   Clear